Terug naar catalogus

ONEWEB-0244

ActiefCommunicatiePO
NORAD 48776·PAYLOAD·🇬🇧 United Kingdom

Gelanceerd May 28, 2021 vanaf Vostochny Cosmodrome

Loading…

Volgende Passages (komende 24 uur)

TLE

VersSource: CelesTrak SupGP

Epoch: Sep 14, 2026, 11:07 UTC

1 48776C 21045K   26257.46333333 -.00012640  00000+0 -33616-1 0  2575
2 48776  87.8988 241.3896 0002114  83.3509  18.6800 13.15564685    19

Volg ONEWEB-0244 in realtime met AllMySat

Download on the App Store